Wind_Speed
28 26 24 25 26 28 27 26 26 26 26 27 27 27 26 26 26 25 23 22 22 23 22 22 23 24 24
28 27 25 26 27 27 28 27 27 28 29 29 28 29 29 29 29 29 26 24 22 22 22 22 24 23 22
27 27 26 27 28 27 27 28 28 28 28 28 28 28 28 29 29 27 24 24 22 20 21 21 22 21 20
28 27 28 29 29 28 28 28 28 27 28 28 27 28 29 28 26 24 21 21 20 19 19 20 21 21 16
30 29 29 30 30 30 30 28 27 27 27 26 28 29 27 24 22 20 20 19 18 19 20 19 18 16 12
32 32 31 32 31 29 29 29 28 27 27 27 26 24 22 20 18 18 18 18 18 19 19 18 15 14 9
34 32 34 34 33 30 29 28 28 28 27 26 23 20 20 17 15 15 15 14 16 17 16 16 17 18 17
38 35 34 35 33 30 29 29 28 28 26 24 20 19 17 14 13 13 13 13 14 15 14 16 17 20 23
37 37 35 34 33 30 29 28 27 26 24 22 19 16 14 13 13 14 13 14 15 15 16 17 17 18 20
41 36 36 33 31 29 30 27 26 26 23 21 19 15 14 14 14 15 14 14 14 16 17 16 17 18 18
39 38 34 31 30 30 29 27 25 25 22 20 19 16 16 16 15 15 14 15 15 16 15 15 15 16 16
40 36 32 31 30 29 27 26 24 24 22 20 19 16 17 17 17 17 17 16 16 13 13 15 17 18 19
37 34 32 35 34 29 26 25 24 24 23 22 21 20 19 18 18 19 18 18 16 16 17 20 20 20 21
38 39 38 35 32 29 26 25 25 25 24 24 23 22 21 21 21 21 19 14 14 16 16 19 22 23 23
39 39 38 35 33 30 28 27 26 26 25 26 26 25 24 24 24 23 20 17 16 16 17 16 18 21 22
42 42 40 38 36 36 34 30 27 29 28 27 27 28 27 27 26 24 21 18 18 18 19 19 19 21 24
36 39 42 43 43 41 38 35 31 31 30 30 29 29 29 30 28 25 22 21 20 22 24 24 24 22 21
Wind_Direction
253 246 252 262 272 275 279 279 280 281 282 281 284 284 286 284 286 285 283 276 273 268 266 263 255 250 244
243 245 258 268 274 276 276 277 279 281 281 283 284 285 285 284 283 281 278 277 271 266 263 263 258 251 245
243 253 264 273 274 273 273 275 276 279 283 285 285 285 286 282 279 278 273 269 269 268 266 263 257 250 244
249 259 270 277 273 270 269 271 277 282 283 284 284 284 279 276 275 277 273 269 267 266 264 259 253 251 250
251 261 271 278 276 274 276 278 280 281 279 280 280 278 276 276 275 274 275 273 269 262 253 246 243 248 247
253 264 274 280 276 274 276 280 283 278 276 277 274 276 279 275 274 274 271 268 260 248 241 233 229 231 228
252 262 274 279 275 273 274 278 279 276 273 273 271 270 269 266 263 260 256 250 240 230 226 224 220 219 185
258 266 264 273 271 270 272 274 273 272 272 269 263 259 257 254 247 243 237 232 230 227 220 218 215 214 208
258 260 265 264 263 264 266 269 271 272 270 263 255 248 243 238 234 232 229 225 225 225 223 220 218 217 222
260 259 257 256 257 259 261 263 264 268 263 255 245 235 230 227 225 229 228 228 228 226 224 220 221 217 217
252 251 249 249 251 252 255 257 260 259 247 244 236 223 223 225 223 226 225 222 218 220 220 214 217 224 234
247 244 243 243 246 245 248 252 254 247 242 233 227 217 216 224 225 224 216 210 204 204 218 235 242 243 241
245 245 240 238 238 239 243 249 247 241 234 224 220 217 217 222 222 218 207 207 222 241 248 247 243 244 243
240 239 234 237 239 238 240 241 239 234 228 222 221 221 216 215 216 215 217 229 242 248 252 250 242 241 238
241 237 232 233 235 235 233 235 234 231 227 226 225 223 219 215 215 220 227 241 245 253 255 256 248 241 237
236 238 230 229 231 234 234 227 229 229 227 225 224 223 221 217 218 224 234 242 250 255 258 259 253 245 238
235 236 235 228 227 229 234 225 220 226 227 224 221 223 221 220 224 229 237 245 256 261 265 256 244 240 233
Height
3066 3067 3069 3070 3071 3071 3070 3069 3069 3068 3066 3066 3065 3063 3061 3059 3057 3057 3056 3055 3056 3055 3055 3056 3056 3059 3059
3059 3061 3062 3062 3063 3063 3062 3062 3062 3062 3060 3059 3057 3055 3053 3052 3050 3049 3049 3049 3050 3050 3049 3049 3050 3054 3054
3052 3053 3054 3055 3055 3056 3055 3055 3054 3052 3052 3049 3049 3048 3047 3046 3044 3042 3041 3041 3042 3043 3043 3044 3046 3047 3050
3046 3047 3047 3049 3048 3048 3047 3045 3045 3044 3043 3042 3041 3040 3040 3038 3036 3036 3035 3036 3036 3035 3037 3040 3041 3041 3046
3038 3039 3041 3040 3040 3039 3039 3039 3036 3036 3035 3034 3034 3035 3033 3031 3029 3028 3029 3029 3030 3031 3033 3035 3037 3039 3042
3029 3032 3034 3032 3032 3031 3031 3031 3031 3028 3027 3028 3027 3026 3024 3023 3022 3022 3023 3023 3024 3027 3030 3032 3033 3036 3040
3019 3020 3023 3024 3023 3023 3024 3023 3022 3022 3021 3020 3018 3017 3018 3017 3015 3016 3017 3019 3022 3021 3023 3027 3031 3034 3038
3008 3011 3009 3011 3014 3014 3014 3015 3014 3015 3013 3012 3010 3011 3011 3011 3011 3013 3012 3016 3017 3021 3020 3023 3028 3030 3033
2997 3000 3002 3002 3003 3006 3005 3007 3006 3007 3005 3004 3004 3004 3005 3007 3010 3010 3010 3011 3014 3016 3019 3021 3024 3027 3030
2987 2989 2991 2994 2995 2996 2997 2997 2998 2997 2998 2999 2998 2997 3000 3003 3006 3008 3008 3009 3011 3012 3016 3017 3020 3023 3026
2974 2977 2980 2983 2985 2988 2989 2989 2989 2990 2991 2991 2992 2992 2995 2999 3001 3003 3004 3006 3007 3010 3012 3015 3018 3020 3022
2964 2968 2970 2973 2976 2977 2978 2980 2981 2982 2985 2985 2987 2986 2990 2995 2996 2999 3001 3002 3005 3007 3009 3012 3015 3016 3017
2955 2959 2962 2961 2965 2967 2969 2971 2972 2974 2978 2980 2980 2983 2985 2989 2991 2995 2997 2998 3001 3003 3005 3007 3009 3011 3012
2944 2947 2948 2952 2957 2958 2960 2963 2965 2968 2971 2973 2976 2978 2980 2983 2987 2991 2992 2994 2996 2998 3000 3002 3004 3005 3007
2932 2935 2938 2942 2947 2950 2951 2953 2957 2961 2964 2967 2969 2972 2974 2978 2982 2985 2987 2988 2991 2993 2995 2996 2997 2999 3001
2921 2923 2926 2931 2935 2940 2942 2944 2949 2953 2956 2959 2962 2966 2969 2972 2976 2979 2981 2983 2985 2987 2988 2990 2991 2993 2995
2906 2910 2914 2918 2922 2927 2931 2933 2939 2944 2947 2951 2955 2959 2962 2966 2970 2972 2974 2976 2978 2979 2981 2982 2983 2987 2989